Regional Weather Roundup
Issued by NWS

Home | Current Version | Previous Version | Graphics & Text | Print | Product List | Glossary On
Versions: 1 2 3 4 5 6 7 8 9 10 11 12 13 14 15 16 17 18 19 20 21 22 23 24 25 26 27 28 29 30 31 32 33 34 35 36 37 38 39 40 41 42 43 44 45 46 47 48 49 50
000
ASUS43 KIND 242059
RWRIN

WEATHER ROUNDUP FOR INDIANA
NATIONAL WEATHER SERVICE INDIANAPOLIS IN
500 PM EDT SAT JUN 24 2017

NOTE: "FAIR" INDICATES FEW OR NO CLOUDS BELOW 12,000 FEET WITH NO
SIGNIFICANT WEATHER AND/OR OBSTRUCTIONS TO VISIBILITY.

* - STATION DOES NOT REPORT WEATHER SUCH AS PRECIPITATION OR FOG.

+ - STATION NOT QUALITY CONTROLLED BY THE NATIONAL WEATHER SERVICE.
    USE DATA WITH CAUTION...ESPECIALLY DEWPOINT AND RELATIVE
    HUMIDITY OBSERVATIONS.

INZ001>003-010>013-019-020-242200-
NORTHWEST INDIANA

CITY           SKY/WX    TMP DP  RH WIND       PRES   REMARKS
GARY /AIRPORT/ PTSUNNY   73  41  31 W24       30.00S
KNOX *+        MOSUNNY   73  37  27 W16G23    29.99S
MICHIGAN CITY+ MOSUNNY   72  52  49 NW8       30.00S
MONTICELLO +   MOSUNNY   74  49  41 W16       30.01S

$$

LMZ046-743>745-242200-
SOUTHERN LAKE MICHIGAN

STATION/POSITION TIME  TEMP    WIND        PRES    WAVE
                       AIR SEA DIR/SP/G            HT
                 (UTC) (F)     (DEG/KT/KT) (MB)    (FT)
BURNS HARBOR     2040   69     300/ 10/ 13 1016.3R
MICHIGAN CITY    2030   70     330/  8/  8   N/A
5NW MICH CITY    2050   68 68  340/  6/  8   N/A     2

$$

INZ004-005-014>016-021>024-242200-
NORTH CENTRAL INDIANA

CITY           SKY/WX    TMP DP  RH WIND       PRES   REMARKS
ELKHART        MOSUNNY   72  50  46 NW16      29.98S
GOSHEN         MOSUNNY   73  49  42 NW17G25   29.97S
PERU/GRISSOM   MOSUNNY   74  52  46 W18G24    29.99S
SOUTH BEND     SUNNY     72  51  47 NW17G24   29.99R

$$

INZ006>009-017-018-025>027-242200-
NORTHEAST INDIANA

CITY           SKY/WX    TMP DP  RH WIND       PRES   REMARKS
FORT WAYNE     MOSUNNY   74  53  48 W17G23    29.97S
KENDALLVILLE + PTSUNNY   74  53  49 NW12      29.98R

$$

INZ028-029-035-036-043>045-051>053-242200-
WEST CENTRAL INDIANA

CITY           SKY/WX    TMP DP  RH WIND       PRES   REMARKS
CRAWFORDSVL +  MOSUNNY   70  53  55 W12       30.05R
LAFAYETTE      MOSUNNY   73  49  42 W18G25    30.02S
TERRE HAUTE    MOSUNNY   75  51  43 NW10      30.06S

$$

INZ030>032-037>040-046>048-054>057-064-065-242200-
CENTRAL INDIANA

CITY           SKY/WX    TMP DP  RH WIND       PRES   REMARKS
COLUMBUS       MOSUNNY   75  48  38 W14G21    30.03S
GREENWOOD *+   CLOUDY    75  51  44 W14G21    30.03S
INDIANAPOLIS   MOSUNNY   76  54  46 NW20      30.03R
-EAGLE CREEK   PTSUNNY   75  54  47 W14G22    30.02S
KOKOMO +       MOSUNNY   74  55  51 W21       30.01S
MT COMFORT *+  MOSUNNY   75  55  50 W20       30.03S
SHELBYVILLE    MOSUNNY   78  55  44 NW14      30.01S

$$

INZ033-034-041-042-049-050-058-059-242200-
EAST CENTRAL INDIANA

CITY           SKY/WX    TMP DP  RH WIND       PRES   REMARKS
MUNCIE         PTSUNNY   74  54  49 W10G22    30.00S
RICHMOND +     MOSUNNY   73  55  53 W14G21    30.01F

$$

INZ060-061-067>069-081>083-085>088-242200-
SOUTHWEST INDIANA

CITY           SKY/WX    TMP DP  RH WIND       PRES   REMARKS
EVANSVILLE     SUNNY     77  52  41 NW10G22   30.07S
HUNTINGBURG *+ SUNNY     77  56  48 W15G21    30.06S

$$

INZ062-063-066-070>080-084-089>092-242200-
SOUTH CENTRAL AND SOUTHEAST INDIANA

CITY           SKY/WX    TMP DP  RH WIND       PRES   REMARKS
BLOOMINGTON    PTSUNNY   77  54  44 NW7G22    30.05R
MADISON *+     MOSUNNY   79  52  38 W9        30.05S
SEYMOUR +      MOSUNNY  N/A N/A N/A W15       30.03

$$





USA.gov is the U.S. government's official web portal to all federal, state and local government web resources and services.